Year,Month,Day,Hour,Minute,Value (Times are PST for temperature in C)
2018,08,23,00,00,14.60
2018,08,23,00,01,14.60
2018,08,23,00,02,14.60
2018,08,23,00,03,14.60
2018,08,23,00,04,14.60
2018,08,23,00,05,14.60
2018,08,23,00,06,14.60
2018,08,23,00,07,14.60
2018,08,23,00,08,14.60
2018,08,23,00,09,14.70
2018,08,23,00,10,14.70
2018,08,23,00,11,14.70
2018,08,23,00,12,14.80
2018,08,23,00,13,14.80
2018,08,23,00,14,14.80
2018,08,23,00,15,14.80
2018,08,23,00,16,14.80
2018,08,23,00,17,14.80
2018,08,23,00,18,14.80
2018,08,23,00,19,14.80
2018,08,23,00,20,14.70
2018,08,23,00,21,14.70
2018,08,23,00,22,14.70
2018,08,23,00,23,14.60
2018,08,23,00,24,14.60
2018,08,23,00,25,14.60
2018,08,23,00,26,14.60
2018,08,23,00,27,14.50
2018,08,23,00,28,14.50
2018,08,23,00,29,14.50
2018,08,23,00,30,14.50
2018,08,23,00,31,14.40
2018,08,23,00,32,14.40
2018,08,23,00,33,14.40
2018,08,23,00,34,14.40
2018,08,23,00,35,14.30
2018,08,23,00,36,14.30
2018,08,23,00,37,14.30
2018,08,23,00,38,14.30
2018,08,23,00,39,14.20
2018,08,23,00,40,14.20
2018,08,23,00,41,14.20
2018,08,23,00,42,14.20
2018,08,23,00,43,14.20
2018,08,23,00,44,14.10
2018,08,23,00,45,14.10
2018,08,23,00,46,14.10
2018,08,23,00,47,14.10
2018,08,23,00,48,14.10
2018,08,23,00,49,14.10
2018,08,23,00,50,14.10
2018,08,23,00,51,14.10
2018,08,23,00,52,14.10
2018,08,23,00,53,14.10
2018,08,23,00,54,14.10
2018,08,23,00,55,14.10
2018,08,23,00,56,14.10
2018,08,23,00,57,14.10
2018,08,23,00,58,14.10
2018,08,23,00,59,14.10
2018,08,23,01,00,14.10
2018,08,23,01,01,14.10
2018,08,23,01,02,14.10
2018,08,23,01,03,14.10
2018,08,23,01,04,14.10
2018,08,23,01,05,14.10
2018,08,23,01,06,14.10
2018,08,23,01,07,14.10
2018,08,23,01,08,14.20
2018,08,23,01,09,14.30
2018,08,23,01,10,14.30
2018,08,23,01,11,14.40
2018,08,23,01,12,14.40
2018,08,23,01,13,14.40
2018,08,23,01,14,14.50
2018,08,23,01,15,14.50
2018,08,23,01,16,14.50
2018,08,23,01,17,14.50
2018,08,23,01,18,14.50
2018,08,23,01,19,14.50
2018,08,23,01,20,14.40
2018,08,23,01,21,14.40
2018,08,23,01,22,14.40
2018,08,23,01,23,14.30
2018,08,23,01,24,14.30
2018,08,23,01,25,14.20
2018,08,23,01,26,14.20
2018,08,23,01,27,14.20
2018,08,23,01,28,14.20
2018,08,23,01,29,14.30
2018,08,23,01,30,14.30
2018,08,23,01,31,14.30
2018,08,23,01,32,14.30
2018,08,23,01,33,14.30
2018,08,23,01,34,14.30
2018,08,23,01,35,14.30
2018,08,23,01,36,14.30
2018,08,23,01,37,14.20
2018,08,23,01,38,14.20
2018,08,23,01,39,14.20
2018,08,23,01,40,14.20
2018,08,23,01,41,14.20
2018,08,23,01,42,14.10
2018,08,23,01,43,14.10
2018,08,23,01,44,14.10
2018,08,23,01,45,14.10
2018,08,23,01,46,14.10
2018,08,23,01,47,14.00
2018,08,23,01,48,14.00
2018,08,23,01,49,14.00
2018,08,23,01,50,13.90
2018,08,23,01,51,13.90
2018,08,23,01,52,13.90
2018,08,23,01,53,13.90
2018,08,23,01,54,13.90
2018,08,23,01,55,13.80
2018,08,23,01,56,13.80
2018,08,23,01,57,13.80
2018,08,23,01,58,13.80
2018,08,23,01,59,13.80
2018,08,23,02,00,13.80
2018,08,23,02,01,13.70
2018,08,23,02,02,13.70
2018,08,23,02,03,13.70
2018,08,23,02,04,13.70
2018,08,23,02,05,13.70
2018,08,23,02,06,13.60
2018,08,23,02,07,13.60
2018,08,23,02,08,13.60
2018,08,23,02,09,13.60
2018,08,23,02,10,13.60
2018,08,23,02,11,13.60
2018,08,23,02,12,13.60
2018,08,23,02,13,13.60
2018,08,23,02,14,13.60
2018,08,23,02,15,13.70
2018,08,23,02,16,13.70
2018,08,23,02,17,13.70
2018,08,23,02,18,13.60
2018,08,23,02,19,13.60
2018,08,23,02,20,13.60
2018,08,23,02,21,13.60
2018,08,23,02,22,13.50
2018,08,23,02,23,13.50
2018,08,23,02,24,13.40
2018,08,23,02,25,13.40
2018,08,23,02,26,13.40
2018,08,23,02,27,13.40
2018,08,23,02,28,13.50
2018,08,23,02,29,13.60
2018,08,23,02,30,13.60
2018,08,23,02,31,13.60
2018,08,23,02,32,13.70
2018,08,23,02,33,13.70
2018,08,23,02,34,13.80
2018,08,23,02,35,13.90
2018,08,23,02,36,14.00
2018,08,23,02,37,14.10
2018,08,23,02,38,14.20
2018,08,23,02,39,14.30
2018,08,23,02,40,14.30
2018,08,23,02,41,14.30
2018,08,23,02,42,14.30
2018,08,23,02,43,14.30
2018,08,23,02,44,14.30
2018,08,23,02,45,14.30
2018,08,23,02,46,14.30
2018,08,23,02,47,14.20
2018,08,23,02,48,14.20
2018,08,23,02,49,14.20
2018,08,23,02,50,14.20
2018,08,23,02,51,14.10
2018,08,23,02,52,14.10
2018,08,23,02,53,14.10
2018,08,23,02,54,14.00
2018,08,23,02,55,14.00
2018,08,23,02,56,13.90
2018,08,23,02,57,13.80
2018,08,23,02,58,13.80
2018,08,23,02,59,13.70
2018,08,23,03,00,13.60
2018,08,23,03,01,13.60
2018,08,23,03,02,13.50
2018,08,23,03,03,13.50
2018,08,23,03,04,13.40
2018,08,23,03,05,13.40
2018,08,23,03,06,13.30
2018,08,23,03,07,13.30
2018,08,23,03,08,13.30
2018,08,23,03,09,13.30
2018,08,23,03,10,13.20
2018,08,23,03,11,13.20
2018,08,23,03,12,13.10
2018,08,23,03,13,13.10
2018,08,23,03,14,13.00
2018,08,23,03,15,12.90
2018,08,23,03,16,12.90
2018,08,23,03,17,12.90
2018,08,23,03,18,12.90
2018,08,23,03,19,12.80
2018,08,23,03,20,12.80
2018,08,23,03,21,12.80
2018,08,23,03,22,12.90
2018,08,23,03,23,12.90
2018,08,23,03,24,13.00
2018,08,23,03,25,13.00
2018,08,23,03,26,13.10
2018,08,23,03,27,13.10
2018,08,23,03,28,13.20
2018,08,23,03,29,13.20
2018,08,23,03,30,13.10
2018,08,23,03,31,13.10
2018,08,23,03,32,13.10
2018,08,23,03,33,13.10
2018,08,23,03,34,13.10
2018,08,23,03,35,13.00
2018,08,23,03,36,13.10
2018,08,23,03,37,13.10
2018,08,23,03,38,13.10
2018,08,23,03,39,13.10
2018,08,23,03,40,13.10
2018,08,23,03,41,13.10
2018,08,23,03,42,13.10
2018,08,23,03,43,13.10
2018,08,23,03,44,13.10
2018,08,23,03,45,13.20
2018,08,23,03,46,13.20
2018,08,23,03,47,13.30
2018,08,23,03,48,13.30
2018,08,23,03,49,13.30
2018,08,23,03,50,13.30
2018,08,23,03,51,13.40
2018,08,23,03,52,13.40
2018,08,23,03,53,13.40
2018,08,23,03,54,13.40
2018,08,23,03,55,13.40
2018,08,23,03,56,13.30
2018,08,23,03,57,13.30
2018,08,23,03,58,13.30
2018,08,23,03,59,13.30
2018,08,23,04,00,13.20
2018,08,23,04,01,13.20
2018,08,23,04,02,13.20
2018,08,23,04,03,13.10
2018,08,23,04,04,13.10
2018,08,23,04,05,13.00
2018,08,23,04,06,13.00
2018,08,23,04,07,12.90
2018,08,23,04,08,12.90
2018,08,23,04,09,12.90
2018,08,23,04,10,12.80
2018,08,23,04,11,12.80
2018,08,23,04,12,12.90
2018,08,23,04,13,12.90
2018,08,23,04,14,12.90
2018,08,23,04,15,12.90
2018,08,23,04,16,12.90
2018,08,23,04,17,12.90
2018,08,23,04,18,12.90
2018,08,23,04,19,12.90
2018,08,23,04,20,12.80
2018,08,23,04,21,12.80
2018,08,23,04,22,12.80
2018,08,23,04,23,12.80
2018,08,23,04,24,12.70
2018,08,23,04,25,12.70
2018,08,23,04,26,12.70
2018,08,23,04,27,12.70
2018,08,23,04,28,12.60
2018,08,23,04,29,12.60
2018,08,23,04,30,12.60
2018,08,23,04,31,12.60
2018,08,23,04,32,12.60
2018,08,23,04,33,12.60
2018,08,23,04,34,12.60
2018,08,23,04,35,12.60
2018,08,23,04,36,12.60
2018,08,23,04,37,12.60
2018,08,23,04,38,12.60
2018,08,23,04,39,12.60
2018,08,23,04,40,12.50
2018,08,23,04,41,12.50
2018,08,23,04,42,12.50
2018,08,23,04,43,12.50
2018,08,23,04,44,12.50
2018,08,23,04,45,12.50
2018,08,23,04,46,12.50
2018,08,23,04,47,12.50
2018,08,23,04,48,12.50
2018,08,23,04,49,12.50
2018,08,23,04,50,12.50
2018,08,23,04,51,12.50
2018,08,23,04,52,12.50
2018,08,23,04,53,12.50
2018,08,23,04,54,12.50
2018,08,23,04,55,12.50
2018,08,23,04,56,12.50
2018,08,23,04,57,12.50
2018,08,23,04,58,12.40
2018,08,23,04,59,12.50
2018,08,23,05,00,12.40
2018,08,23,05,01,12.40
2018,08,23,05,02,12.40
2018,08,23,05,03,12.40
2018,08,23,05,04,12.40
2018,08,23,05,05,12.40
2018,08,23,05,06,12.40
2018,08,23,05,07,12.40
2018,08,23,05,08,12.40
2018,08,23,05,09,12.30
2018,08,23,05,10,12.30
2018,08,23,05,11,12.30
2018,08,23,05,12,12.30
2018,08,23,05,13,12.20
2018,08,23,05,14,12.20
2018,08,23,05,15,12.20
2018,08,23,05,16,12.20
2018,08,23,05,17,12.20
2018,08,23,05,18,12.20
2018,08,23,05,19,12.20
2018,08,23,05,20,12.20
2018,08,23,05,21,12.10
2018,08,23,05,22,12.10
2018,08,23,05,23,12.10
2018,08,23,05,24,12.10
2018,08,23,05,25,12.00
2018,08,23,05,26,12.00
2018,08,23,05,27,11.90
2018,08,23,05,28,11.90
2018,08,23,05,29,11.90
2018,08,23,05,30,11.90
2018,08,23,05,31,11.90
2018,08,23,05,32,11.80
2018,08,23,05,33,11.80
2018,08,23,05,34,11.80
2018,08,23,05,35,11.80
2018,08,23,05,36,11.70
2018,08,23,05,37,11.70
2018,08,23,05,38,11.70
2018,08,23,05,39,11.70
2018,08,23,05,40,11.70
2018,08,23,05,41,11.70
2018,08,23,05,42,11.70
2018,08,23,05,43,11.70
2018,08,23,05,44,11.70
2018,08,23,05,45,11.70
2018,08,23,05,46,11.70
2018,08,23,05,47,11.70
2018,08,23,05,48,11.70
2018,08,23,05,49,11.70
2018,08,23,05,50,11.70
2018,08,23,05,51,11.60
2018,08,23,05,52,11.60
2018,08,23,05,53,11.60
2018,08,23,05,54,11.50
2018,08,23,05,55,11.50
2018,08,23,05,56,11.40
2018,08,23,05,57,11.40
2018,08,23,05,58,11.40
2018,08,23,05,59,11.50
2018,08,23,06,00,11.60
2018,08,23,06,01,11.60
2018,08,23,06,02,11.60
2018,08,23,06,03,11.60
2018,08,23,06,04,11.60
2018,08,23,06,05,11.50
2018,08,23,06,06,11.40
2018,08,23,06,07,11.40
2018,08,23,06,08,11.30
2018,08,23,06,09,11.30
2018,08,23,06,10,11.20
2018,08,23,06,11,11.20
2018,08,23,06,12,11.20
2018,08,23,06,13,11.10
2018,08,23,06,14,11.10
2018,08,23,06,15,11.10
2018,08,23,06,16,11.10
2018,08,23,06,17,11.10
2018,08,23,06,18,11.10
2018,08,23,06,19,11.10
2018,08,23,06,20,11.10
2018,08,23,06,21,11.10
2018,08,23,06,22,11.10
2018,08,23,06,23,11.10
2018,08,23,06,24,11.10
2018,08,23,06,25,11.10
2018,08,23,06,26,11.10
2018,08,23,06,27,11.10
2018,08,23,06,28,11.10
2018,08,23,06,29,11.10
2018,08,23,06,30,11.00
2018,08,23,06,31,11.00
2018,08,23,06,32,11.00
2018,08,23,06,33,11.00
2018,08,23,06,34,11.00
2018,08,23,06,35,11.00
2018,08,23,06,36,11.00
2018,08,23,06,37,11.00
2018,08,23,06,38,11.00
2018,08,23,06,39,11.00
2018,08,23,06,40,11.00
2018,08,23,06,41,11.10
2018,08,23,06,42,11.10
2018,08,23,06,43,11.20
2018,08,23,06,44,11.30
2018,08,23,06,45,11.40
2018,08,23,06,46,11.40
2018,08,23,06,47,11.40
2018,08,23,06,48,11.50
2018,08,23,06,49,11.50
2018,08,23,06,50,11.40
2018,08,23,06,51,11.40
2018,08,23,06,52,11.40
2018,08,23,06,53,11.40
2018,08,23,06,54,11.40
2018,08,23,06,55,11.40
2018,08,23,06,56,11.40
2018,08,23,06,57,11.40
2018,08,23,06,58,11.40
2018,08,23,06,59,11.40
2018,08,23,07,00,11.40
2018,08,23,07,01,11.40
2018,08,23,07,02,11.50
2018,08,23,07,03,11.50
2018,08,23,07,04,11.50
2018,08,23,07,05,11.40
2018,08,23,07,06,11.40
2018,08,23,07,07,11.40
2018,08,23,07,08,11.40
2018,08,23,07,09,11.30
2018,08,23,07,10,11.30
2018,08,23,07,11,11.30
2018,08,23,07,12,11.30
2018,08,23,07,13,11.30
2018,08,23,07,14,11.30
2018,08,23,07,15,11.30
2018,08,23,07,16,11.40
2018,08,23,07,17,11.50
2018,08,23,07,18,11.60
2018,08,23,07,19,11.60
2018,08,23,07,20,11.70
2018,08,23,07,21,11.70
2018,08,23,07,22,11.70
2018,08,23,07,23,11.70
2018,08,23,07,24,11.70
2018,08,23,07,25,11.70
2018,08,23,07,26,11.80
2018,08,23,07,27,11.80
2018,08,23,07,28,11.80
2018,08,23,07,29,11.90
2018,08,23,07,30,12.00
2018,08,23,07,31,12.00
2018,08,23,07,32,12.10
2018,08,23,07,33,12.20
2018,08,23,07,34,12.20
2018,08,23,07,35,12.30
2018,08,23,07,36,12.30
2018,08,23,07,37,12.30
2018,08,23,07,38,12.40
2018,08,23,07,39,12.40
2018,08,23,07,40,12.50
2018,08,23,07,41,12.50
2018,08,23,07,42,12.50
2018,08,23,07,43,12.60
2018,08,23,07,44,12.70
2018,08,23,07,45,12.80
2018,08,23,07,46,12.80
2018,08,23,07,47,12.90
2018,08,23,07,48,12.90
2018,08,23,07,49,13.00
2018,08,23,07,50,13.10
2018,08,23,07,51,13.20
2018,08,23,07,52,13.20
2018,08,23,07,53,13.20
2018,08,23,07,54,13.30
2018,08,23,07,55,13.30
2018,08,23,07,56,13.40
2018,08,23,07,57,13.40
2018,08,23,07,58,13.50
2018,08,23,07,59,13.60
2018,08,23,08,00,13.60
2018,08,23,08,01,13.60
2018,08,23,08,02,13.70
2018,08,23,08,03,13.70
2018,08,23,08,04,13.70
2018,08,23,08,05,13.70
2018,08,23,08,06,13.80
2018,08,23,08,07,13.80
2018,08,23,08,08,13.90
2018,08,23,08,09,13.90
2018,08,23,08,10,14.00
2018,08,23,08,11,14.00
2018,08,23,08,12,14.10
2018,08,23,08,13,14.10
2018,08,23,08,14,14.10
2018,08,23,08,15,14.10
2018,08,23,08,16,14.10
2018,08,23,08,17,14.10
2018,08,23,08,18,14.10
2018,08,23,08,19,14.20
2018,08,23,08,20,14.20
2018,08,23,08,21,14.20
2018,08,23,08,22,14.20
2018,08,23,08,23,14.20
2018,08,23,08,24,14.20
2018,08,23,08,25,14.20
2018,08,23,08,26,14.20
2018,08,23,08,27,14.20
2018,08,23,08,28,14.20
2018,08,23,08,29,14.30
2018,08,23,08,30,14.30
2018,08,23,08,31,14.30
2018,08,23,08,32,14.30
2018,08,23,08,33,14.40
2018,08,23,08,34,14.40
2018,08,23,08,35,14.50
2018,08,23,08,36,14.50
2018,08,23,08,37,14.50
2018,08,23,08,38,14.50
2018,08,23,08,39,14.60
2018,08,23,08,40,14.60
2018,08,23,08,41,14.60
2018,08,23,08,42,14.60
2018,08,23,08,43,14.70
2018,08,23,08,44,14.70
2018,08,23,08,45,14.70
2018,08,23,08,46,14.80
2018,08,23,08,47,14.90
2018,08,23,08,48,15.00
2018,08,23,08,49,15.10
2018,08,23,08,50,15.20
2018,08,23,08,51,15.20
2018,08,23,08,52,15.30
2018,08,23,08,53,15.40
2018,08,23,08,54,15.50
2018,08,23,08,55,15.50
2018,08,23,08,56,15.50
2018,08,23,08,57,15.50
2018,08,23,08,58,15.50
2018,08,23,08,59,15.60
2018,08,23,09,00,15.60
2018,08,23,09,01,15.70
2018,08,23,09,02,15.70
2018,08,23,09,03,15.70
2018,08,23,09,04,15.70
2018,08,23,09,05,15.70
2018,08,23,09,06,15.70
2018,08,23,09,07,15.70
2018,08,23,09,08,15.70
2018,08,23,09,09,15.70
2018,08,23,09,10,15.70
2018,08,23,09,11,15.80
2018,08,23,09,12,15.80
2018,08,23,09,13,15.70
2018,08,23,09,14,15.70
2018,08,23,09,15,15.60
2018,08,23,09,16,15.60
2018,08,23,09,17,15.60
2018,08,23,09,18,15.60
2018,08,23,09,19,15.60
2018,08,23,09,20,15.50
2018,08,23,09,21,15.50
2018,08,23,09,22,15.50
2018,08,23,09,23,15.40
2018,08,23,09,24,15.40
2018,08,23,09,25,15.40
2018,08,23,09,26,15.40
2018,08,23,09,27,15.40
2018,08,23,09,28,15.40
2018,08,23,09,29,15.40
2018,08,23,09,30,15.50
2018,08,23,09,31,15.50
2018,08,23,09,32,15.60
2018,08,23,09,33,15.60
2018,08,23,09,34,15.60
2018,08,23,09,35,15.60
2018,08,23,09,36,15.70
2018,08,23,09,37,15.70
2018,08,23,09,38,15.70
2018,08,23,09,39,15.80
2018,08,23,09,40,15.80
2018,08,23,09,41,15.80
2018,08,23,09,42,15.90
2018,08,23,09,43,15.90
2018,08,23,09,44,16.00
2018,08,23,09,45,16.00
2018,08,23,09,46,16.00
2018,08,23,09,47,16.00
2018,08,23,09,48,16.00
2018,08,23,09,49,16.00
2018,08,23,09,50,16.00
2018,08,23,09,51,16.00
2018,08,23,09,52,16.00
2018,08,23,09,53,16.00
2018,08,23,09,54,15.90
2018,08,23,09,55,15.90
2018,08,23,09,56,15.90
2018,08,23,09,57,15.90
2018,08,23,09,58,15.90
2018,08,23,09,59,15.90
2018,08,23,10,00,15.90
2018,08,23,10,01,16.00
2018,08,23,10,02,16.00
2018,08,23,10,03,16.00
2018,08,23,10,04,16.00
2018,08,23,10,05,16.00
2018,08,23,10,06,16.00
2018,08,23,10,07,16.00
2018,08,23,10,08,16.00
2018,08,23,10,09,16.00
2018,08,23,10,10,16.00
2018,08,23,10,11,16.00
2018,08,23,10,12,16.00
2018,08,23,10,13,16.00
2018,08,23,10,14,16.00
2018,08,23,10,15,15.90
2018,08,23,10,16,15.90
2018,08,23,10,17,15.90
2018,08,23,10,18,15.80
2018,08,23,10,19,15.80
2018,08,23,10,20,15.80
2018,08,23,10,21,15.70
2018,08,23,10,22,15.70
2018,08,23,10,23,15.70
2018,08,23,10,24,15.70
2018,08,23,10,25,15.70
2018,08,23,10,26,15.70
2018,08,23,10,27,15.70
2018,08,23,10,28,15.60
2018,08,23,10,29,15.60
2018,08,23,10,30,15.50
2018,08,23,10,31,15.50
2018,08,23,10,32,15.50
2018,08,23,10,33,15.40
2018,08,23,10,34,15.40
2018,08,23,10,35,15.40
2018,08,23,10,36,15.40
2018,08,23,10,37,15.40
2018,08,23,10,38,15.40
2018,08,23,10,39,15.50
2018,08,23,10,40,15.50
2018,08,23,10,41,15.50
2018,08,23,10,42,15.50
2018,08,23,10,43,15.50
2018,08,23,10,44,15.50
2018,08,23,10,45,15.50
2018,08,23,10,46,15.50
2018,08,23,10,47,15.60
2018,08,23,10,48,15.60
2018,08,23,10,49,15.60
2018,08,23,10,50,15.60
2018,08,23,10,51,15.60
2018,08,23,10,52,15.60
2018,08,23,10,53,15.70
2018,08,23,10,54,15.70
2018,08,23,10,55,15.70
2018,08,23,10,56,15.80
2018,08,23,10,57,15.90
2018,08,23,10,58,15.90
2018,08,23,10,59,16.00
2018,08,23,11,00,16.10
2018,08,23,11,01,16.10
2018,08,23,11,02,16.10
2018,08,23,11,03,16.10
2018,08,23,11,04,16.10
2018,08,23,11,05,16.10
2018,08,23,11,06,16.10
2018,08,23,11,07,16.10
2018,08,23,11,08,16.10
2018,08,23,11,09,16.10
2018,08,23,11,10,16.10
2018,08,23,11,11,16.20
2018,08,23,11,12,16.20
2018,08,23,11,13,16.20
2018,08,23,11,14,16.20
2018,08,23,11,15,16.20
2018,08,23,11,16,16.20
2018,08,23,11,17,16.20
2018,08,23,11,18,16.20
2018,08,23,11,19,16.30
2018,08,23,11,20,16.30
2018,08,23,11,21,16.40
2018,08,23,11,22,16.40
2018,08,23,11,23,16.50
2018,08,23,11,24,16.50
2018,08,23,11,25,16.60
2018,08,23,11,26,16.60
2018,08,23,11,27,16.60
2018,08,23,11,28,16.60
2018,08,23,11,29,16.70
2018,08,23,11,30,16.70
2018,08,23,11,31,16.70
2018,08,23,11,32,16.70
2018,08,23,11,33,16.70
2018,08,23,11,34,16.70
2018,08,23,11,35,16.60
2018,08,23,11,36,16.50
2018,08,23,11,37,16.50
2018,08,23,11,38,16.50
2018,08,23,11,39,16.50
2018,08,23,11,40,16.50
2018,08,23,11,41,16.60
2018,08,23,11,42,16.60
2018,08,23,11,43,16.70
2018,08,23,11,44,16.70
2018,08,23,11,45,16.70
2018,08,23,11,46,16.70
2018,08,23,11,47,16.70
2018,08,23,11,48,16.60
2018,08,23,11,49,16.60
2018,08,23,11,50,16.60
2018,08,23,11,51,16.70
2018,08,23,11,52,16.70
2018,08,23,11,53,16.70
2018,08,23,11,54,16.70
2018,08,23,11,55,16.80
2018,08,23,11,56,16.80
2018,08,23,11,57,16.70
2018,08,23,11,58,16.70
2018,08,23,11,59,16.60
2018,08,23,12,00,16.60
2018,08,23,12,01,16.50
2018,08,23,12,02,16.50
2018,08,23,12,03,16.60
2018,08,23,12,04,16.60
2018,08,23,12,05,16.60
2018,08,23,12,06,16.60
2018,08,23,12,07,16.60
2018,08,23,12,08,16.60
2018,08,23,12,09,16.70
2018,08,23,12,10,16.70
2018,08,23,12,11,16.60
2018,08,23,12,12,16.60
2018,08,23,12,13,16.60
2018,08,23,12,14,16.60
2018,08,23,12,15,16.60
2018,08,23,12,16,16.70
2018,08,23,12,17,16.70
2018,08,23,12,18,16.60
2018,08,23,12,19,16.60
2018,08,23,12,20,16.60
2018,08,23,12,21,16.60
2018,08,23,12,22,16.50
2018,08,23,12,23,16.40
2018,08,23,12,24,16.40
2018,08,23,12,25,16.40
2018,08,23,12,26,16.40
2018,08,23,12,27,16.40
2018,08,23,12,28,16.50
2018,08,23,12,29,16.50
2018,08,23,12,30,16.60
2018,08,23,12,31,16.60
2018,08,23,12,32,16.60
2018,08,23,12,33,16.60
2018,08,23,12,34,16.60
2018,08,23,12,35,16.60
2018,08,23,12,36,16.60
2018,08,23,12,37,16.60
2018,08,23,12,38,16.50
2018,08,23,12,39,16.50
2018,08,23,12,40,16.60
2018,08,23,12,41,16.70
2018,08,23,12,42,16.70
2018,08,23,12,43,16.70
2018,08,23,12,44,16.70
2018,08,23,12,45,16.70
2018,08,23,12,46,16.70
2018,08,23,12,47,16.80
2018,08,23,12,48,16.80
2018,08,23,12,49,16.80
2018,08,23,12,50,16.80
2018,08,23,12,51,16.80
2018,08,23,12,52,16.80
2018,08,23,12,53,16.80
2018,08,23,12,54,16.70
2018,08,23,12,55,16.70
2018,08,23,12,56,16.70
2018,08,23,12,57,16.70
2018,08,23,12,58,16.70
2018,08,23,12,59,16.80
2018,08,23,13,00,16.80
2018,08,23,13,01,16.80
2018,08,23,13,02,16.80
2018,08,23,13,03,16.80
2018,08,23,13,04,16.90
2018,08,23,13,05,17.00
2018,08,23,13,06,17.00
2018,08,23,13,07,17.10
2018,08,23,13,08,17.10
2018,08,23,13,09,17.10
2018,08,23,13,10,17.20
2018,08,23,13,11,17.20
2018,08,23,13,12,17.20
2018,08,23,13,13,17.30
2018,08,23,13,14,17.30
2018,08,23,13,15,17.40
2018,08,23,13,16,17.40
2018,08,23,13,17,17.50
2018,08,23,13,18,17.40
2018,08,23,13,19,17.40
2018,08,23,13,20,17.50
2018,08,23,13,21,17.50
2018,08,23,13,22,17.50
2018,08,23,13,23,17.50
2018,08,23,13,24,17.50
2018,08,23,13,25,17.50
2018,08,23,13,26,17.50
2018,08,23,13,27,17.40
2018,08,23,13,28,17.40
2018,08,23,13,29,17.40
2018,08,23,13,30,17.50
2018,08,23,13,31,17.50
2018,08,23,13,32,17.60
2018,08,23,13,33,17.70
2018,08,23,13,34,17.60
2018,08,23,13,35,17.60
2018,08,23,13,36,17.60
2018,08,23,13,37,17.60
2018,08,23,13,38,17.60
2018,08,23,13,39,17.60
2018,08,23,13,40,17.60
2018,08,23,13,41,17.70
2018,08,23,13,42,17.80
2018,08,23,13,43,17.90
2018,08,23,13,44,17.80
2018,08,23,13,45,17.70
2018,08,23,13,46,17.70
2018,08,23,13,47,17.70
2018,08,23,13,48,17.70
2018,08,23,13,49,17.70
2018,08,23,13,50,17.80
2018,08,23,13,51,17.80
2018,08,23,13,52,17.90
2018,08,23,13,53,18.00
2018,08,23,13,54,18.00
2018,08,23,13,55,18.10
2018,08,23,13,56,18.10
2018,08,23,13,57,18.10
2018,08,23,13,58,18.10
2018,08,23,13,59,18.10
2018,08,23,14,00,18.10
2018,08,23,14,01,18.10
2018,08,23,14,02,18.20
2018,08,23,14,03,18.10
2018,08,23,14,04,18.10
2018,08,23,14,05,18.00
2018,08,23,14,06,17.80
2018,08,23,14,07,17.60
2018,08,23,14,08,17.50
2018,08,23,14,09,17.50
2018,08,23,14,10,17.40
2018,08,23,14,11,17.40
2018,08,23,14,12,17.40
2018,08,23,14,13,17.40
2018,08,23,14,14,17.50
2018,08,23,14,15,17.60
2018,08,23,14,16,17.60
2018,08,23,14,17,17.70
2018,08,23,14,18,17.70
2018,08,23,14,19,17.80
2018,08,23,14,20,17.90
2018,08,23,14,21,17.90
2018,08,23,14,22,18.00
2018,08,23,14,23,18.00
2018,08,23,14,24,18.10
2018,08,23,14,25,18.20
2018,08,23,14,26,18.20
2018,08,23,14,27,18.30
2018,08,23,14,28,18.30
2018,08,23,14,29,18.40
2018,08,23,14,30,18.50
2018,08,23,14,31,18.50
2018,08,23,14,32,18.40
2018,08,23,14,33,18.40
2018,08,23,14,34,18.30
2018,08,23,14,35,18.30
2018,08,23,14,36,18.40
2018,08,23,14,37,18.40
2018,08,23,14,38,18.40
2018,08,23,14,39,18.40
2018,08,23,14,40,18.40
2018,08,23,14,41,18.40
2018,08,23,14,42,18.50
2018,08,23,14,43,18.50
2018,08,23,14,44,18.60
2018,08,23,14,45,18.60
2018,08,23,14,46,18.60
2018,08,23,14,47,18.60
2018,08,23,14,48,18.70
2018,08,23,14,49,18.70
2018,08,23,14,50,18.70
2018,08,23,14,51,18.80
2018,08,23,14,52,18.80
2018,08,23,14,53,18.70
2018,08,23,14,54,18.60
2018,08,23,14,55,18.60
2018,08,23,14,56,18.60
2018,08,23,14,57,18.70
2018,08,23,14,58,18.80
2018,08,23,14,59,18.80
2018,08,23,15,00,18.90
2018,08,23,15,01,18.90
2018,08,23,15,02,18.90
2018,08,23,15,03,18.90
2018,08,23,15,04,18.80
2018,08,23,15,05,18.80
2018,08,23,15,06,18.80
2018,08,23,15,07,18.80
2018,08,23,15,08,18.80
2018,08,23,15,09,18.80
2018,08,23,15,10,18.90
2018,08,23,15,11,18.90
2018,08,23,15,12,19.00
2018,08,23,15,13,19.00
2018,08,23,15,14,19.10
2018,08,23,15,15,19.10
2018,08,23,15,16,19.00
2018,08,23,15,17,18.90
2018,08,23,15,18,18.80
2018,08,23,15,19,18.80
2018,08,23,15,20,18.80
2018,08,23,15,21,18.80
2018,08,23,15,22,18.80
2018,08,23,15,23,18.90
2018,08,23,15,24,19.00
2018,08,23,15,25,19.10
2018,08,23,15,26,19.10
2018,08,23,15,27,19.20
2018,08,23,15,28,19.20
2018,08,23,15,29,19.30
2018,08,23,15,30,19.40
2018,08,23,15,31,19.40
2018,08,23,15,32,19.40
2018,08,23,15,33,19.40
2018,08,23,15,34,19.30
2018,08,23,15,35,19.20
2018,08,23,15,36,19.20
2018,08,23,15,37,19.20
2018,08,23,15,38,19.10
2018,08,23,15,39,19.10
2018,08,23,15,40,19.10
2018,08,23,15,41,19.10
2018,08,23,15,42,19.10
2018,08,23,15,43,19.00
2018,08,23,15,44,18.90
2018,08,23,15,45,18.90
2018,08,23,15,46,18.90
2018,08,23,15,47,18.90
2018,08,23,15,48,19.00
2018,08,23,15,49,19.10
2018,08,23,15,50,19.20
2018,08,23,15,51,19.20
2018,08,23,15,52,19.20
2018,08,23,15,53,19.30
2018,08,23,15,54,19.40
2018,08,23,15,55,19.50
2018,08,23,15,56,19.60
2018,08,23,15,57,19.60
2018,08,23,15,58,19.60
2018,08,23,15,59,19.60
2018,08,23,16,00,19.60
2018,08,23,16,01,19.60
2018,08,23,16,02,19.60
2018,08,23,16,03,19.60
2018,08,23,16,04,19.50
2018,08,23,16,05,19.50
2018,08,23,16,06,19.50
2018,08,23,16,07,19.60
2018,08,23,16,08,19.60
2018,08,23,16,09,19.60
2018,08,23,16,10,19.60
2018,08,23,16,11,19.60
2018,08,23,16,12,19.50
2018,08,23,16,13,19.40
2018,08,23,16,14,19.40
2018,08,23,16,15,19.30
2018,08,23,16,16,19.20
2018,08,23,16,17,19.10
2018,08,23,16,18,19.00
2018,08,23,16,19,18.90
2018,08,23,16,20,18.80
2018,08,23,16,21,18.80
2018,08,23,16,22,18.80
2018,08,23,16,23,18.80
2018,08,23,16,24,18.80
2018,08,23,16,25,18.90
2018,08,23,16,26,19.00
2018,08,23,16,27,19.00
2018,08,23,16,28,19.10
2018,08,23,16,29,19.10
2018,08,23,16,30,19.10
2018,08,23,16,31,19.10
2018,08,23,16,32,19.00
2018,08,23,16,33,18.90
2018,08,23,16,34,18.80
2018,08,23,16,35,18.80
2018,08,23,16,36,18.70
2018,08,23,16,37,18.70
2018,08,23,16,38,18.70
2018,08,23,16,39,18.60
2018,08,23,16,40,18.60
2018,08,23,16,41,18.60
2018,08,23,16,42,18.60
2018,08,23,16,43,18.50
2018,08,23,16,44,18.50
2018,08,23,16,45,18.50
2018,08,23,16,46,18.50
2018,08,23,16,47,18.60
2018,08,23,16,48,18.70
2018,08,23,16,49,18.70
2018,08,23,16,50,18.70
2018,08,23,16,51,18.70
2018,08,23,16,52,18.70
2018,08,23,16,53,18.70
2018,08,23,16,54,18.70
2018,08,23,16,55,18.70
2018,08,23,16,56,18.70
2018,08,23,16,57,18.70
2018,08,23,16,58,18.70
2018,08,23,16,59,18.70
2018,08,23,17,00,18.60
2018,08,23,17,01,18.60
2018,08,23,17,02,18.50
2018,08,23,17,03,18.50
2018,08,23,17,04,18.50
2018,08,23,17,05,18.40
2018,08,23,17,06,18.40
2018,08,23,17,07,18.30
2018,08,23,17,08,18.30
2018,08,23,17,09,18.30
2018,08,23,17,10,18.30
2018,08,23,17,11,18.30
2018,08,23,17,12,18.40
2018,08,23,17,13,18.40
2018,08,23,17,14,18.40
2018,08,23,17,15,18.40
2018,08,23,17,16,18.50
2018,08,23,17,17,18.50
2018,08,23,17,18,18.40
2018,08,23,17,19,18.40